| time (UTC) | temp C | wind direction | speed KPH | gust KPH | rain 1hr cm | rain 24hr cm | rain mn cm | humidity % | barometer mb |
| 20260504212502 | 21 | 270 | 20.9 | 37.0 | 0.00 | 0.00 | 0.00 | 34 | 1006.1 |
| 20260504212005 | 21 | 189 | 16.1 | 32.2 | 0.00 | 0.00 | 0.00 | 33 | 1006.1 |
| 20260504211512 | 21 | 227 | 19.3 | 30.6 | 0.00 | 0.00 | 0.00 | 34 | 1006.1 |
| 20260504211001 | 21 | 219 | 17.7 | 30.6 | 0.00 | 0.00 | 0.00 | 34 | 1006.1 |
| 20260504210503 | 21 | 221 | 12.9 | 35.4 | 0.00 | 0.00 | 0.00 | 35 | 1006.1 |
| 20260504210007 | 21 | 232 | 17.7 | 40.2 | 0.00 | 0.00 | 0.00 | 35 | 1006.2 |
| 20260504205503 | 21 | 227 | 27.4 | 40.2 | 0.00 | 0.00 | 0.00 | 35 | 1006.1 |
| 20260504205004 | 21 | 245 | 11.3 | 40.2 | 0.00 | 0.00 | 0.00 | 35 | 1006.2 |
| 20260504204505 | 21 | 223 | 19.3 | 38.6 | 0.00 | 0.00 | 0.00 | 34 | 1006.2 |
| 20260504204004 | 21 | 210 | 9.7 | 20.9 | 0.00 | 0.00 | 0.00 | 37 | 1006.2 |
| 20260504203502 | 21 | 288 | 8.0 | 30.6 | 0.00 | 0.00 | 0.00 | 37 | 1006.3 |
| 20260504203007 | 21 | 225 | 12.9 | 30.6 | 0.00 | 0.00 | 0.00 | 36 | 1006.4 |
| 20260504202511 | 21 | 259 | 16.1 | 38.6 | 0.00 | 0.00 | 0.00 | 34 | 1006.4 |
| 20260504202004 | 21 | 215 | 16.1 | 43.5 | 0.00 | 0.00 | 0.00 | 35 | 1006.4 |
| 20260504201525 | 21 | 225 | 12.9 | 54.7 | 0.00 | 0.00 | 0.00 | 33 | 1006.3 |
| 20260504201003 | 21 | 236 | 32.2 | 54.7 | 0.00 | 0.00 | 0.00 | 33 | 1006.3 |
| 20260504200508 | 21 | 229 | 14.5 | 53.1 | 0.00 | 0.00 | 0.00 | 35 | 1006.4 |
| 20260504200005 | 21 | 269 | 9.7 | 56.3 | 0.00 | 0.00 | 0.00 | 37 | 1006.4 |
| 20260504195503 | 21 | 186 | 27.4 | 56.3 | 0.00 | 0.00 | 0.00 | 34 | 1006.2 |
| 20260504195007 | 21 | 203 | 19.3 | 35.4 | 0.00 | 0.00 | 0.00 | 35 | 1006.4 |
| 20260504194520 | 21 | 207 | 16.1 | 35.4 | 0.00 | 0.00 | 0.00 | 35 | 1006.5 |
| 20260504194003 | 21 | 257 | 3.2 | 41.8 | 0.00 | 0.00 | 0.00 | 38 | 1006.5 |
| 20260504193506 | 21 | 229 | 14.5 | 41.8 | 0.00 | 0.00 | 0.00 | 33 | 1006.5 |
| 20260504193003 | 21 | 227 | 17.7 | 37.0 | 0.00 | 0.00 | 0.00 | 36 | 1006.6 |
| 20260504192503 | 20 | 267 | 8.0 | 33.8 | 0.00 | 0.00 | 0.00 | 35 | 1006.6 |
| 20260504192007 | 20 | 156 | 9.7 | 38.6 | 0.00 | 0.00 | 0.00 | 35 | 1006.5 |
| 20260504191507 | 21 | 227 | 20.9 | 51.5 | 0.00 | 0.00 | 0.00 | 34 | 1006.7 |
| 20260504191006 | 21 | 221 | 19.3 | 51.5 | 0.00 | 0.00 | 0.00 | 36 | 1006.5 |
| 20260504190508 | 21 | 219 | 17.7 | 51.5 | 0.00 | 0.00 | 0.00 | 35 | 1006.6 |
| 20260504190015 | 21 | 198 | 33.8 | 51.5 | 0.00 | 0.00 | 0.00 | 35 | 1006.6 |
| 20260504185507 | 20 | 207 | 29.0 | 46.7 | 0.00 | 0.00 | 0.00 | 36 | 1006.6 |
| 20260504185002 | 20 | 229 | 24.1 | 46.7 | 0.00 | 0.00 | 0.00 | 34 | 1006.8 |
| 20260504184503 | 20 | 243 | 19.3 | 46.7 | 0.00 | 0.00 | 0.00 | 35 | 1006.9 |
| 20260504184003 | 21 | 232 | 24.1 | 41.8 | 0.00 | 0.00 | 0.00 | 34 | 1006.8 |
| 20260504183501 | 21 | 255 | 9.7 | 40.2 | 0.00 | 0.00 | 0.00 | 36 | 1006.9 |
| 20260504183007 | 21 | 188 | 16.1 | 37.0 | 0.00 | 0.00 | 0.00 | 35 | 1006.8 |
| 20260504182503 | 21 | 196 | 16.1 | 56.3 | 0.00 | 0.00 | 0.00 | 34 | 1006.8 |
| 20260504182013 | 21 | 237 | 37.0 | 56.3 | 0.00 | 0.00 | 0.00 | 35 | 1006.8 |
| 20260504181508 | 21 | 189 | 6.4 | 46.7 | 0.00 | 0.00 | 0.00 | 39 | 1006.8 |
| 20260504181004 | 21 | 250 | 33.8 | 46.7 | 0.00 | 0.00 | 0.00 | 33 | 1007.0 |
| 20260504180504 | 21 | 280 | 9.7 | 33.8 | 0.00 | 0.00 | 0.00 | 35 | 1006.9 |
| 20260504180028 | 21 | 242 | 16.1 | 46.7 | 0.00 | 0.00 | 0.00 | 36 | 1007.0 |
| 20260504175507 | 21 | 280 | 9.7 | 49.9 | 0.00 | 0.00 | 0.00 | 43 | 1007.1 |
| 20260504175005 | 20 | 243 | 30.6 | 49.9 | 0.00 | 0.00 | 0.00 | 35 | 1007.2 |
| 20260504174516 | 20 | 261 | 12.9 | 41.8 | 0.00 | 0.00 | 0.00 | 38 | 1007.2 |
| 20260504174007 | 20 | 265 | 16.1 | 41.8 | 0.00 | 0.00 | 0.00 | 39 | 1007.2 |
| 20260504173505 | 20 | 215 | 20.9 | 38.6 | 0.00 | 0.00 | 0.00 | 36 | 1007.2 |
| 20260504173003 | 20 | 272 | 12.9 | 33.8 | 0.00 | 0.00 | 0.00 | 37 | 1007.1 |
| 20260504172507 | 21 | 250 | 9.7 | 32.2 | 0.00 | 0.00 | 0.00 | 43 | 1007.2 |
| 20260504172001 | 20 | 87 | 8.0 | 32.2 | 0.00 | 0.00 | 0.00 | 34 | 1007.3 |
| 20260504171507 | 20 | 270 | 14.5 | 27.4 | 0.00 | 0.00 | 0.00 | 38 | 1007.4 |
| 20260504171003 | 19 | 51 | 8.0 | 35.4 | 0.00 | 0.00 | 0.00 | 39 | 1007.5 |
| 20260504170503 | 18 | 266 | 11.3 | 35.4 | 0.00 | 0.00 | 0.00 | 40 | 1007.6 |
| 20260504151010 | 18 | 223 | 29.0 | 51.5 | 0.00 | 0.00 | 0.00 | 39 | 1008.3 |
| 20260504150511 | 18 | 261 | 30.6 | 49.9 | 0.00 | 0.00 | 0.00 | 37 | 1008.3 |
| 20260504141009 | 17 | 265 | 22.5 | 48.3 | 0.00 | 0.00 | 0.00 | 41 | 1008.6 |
| 20260504140507 | 17 | 196 | 20.9 | 43.5 | 0.00 | 0.00 | 0.00 | 41 | 1008.6 |
| 20260504130511 | 13 | 191 | 16.1 | 37.0 | 0.00 | 0.00 | 0.00 | 51 | 1009.3 |
| 20260504110504 | 6 | 221 | 6.4 | 12.9 | 0.00 | 0.00 | 0.00 | 76 | 1010.3 |
| 20260504100504 | 4 | 227 | 8.0 | 11.3 | 0.00 | 0.00 | 0.00 | 85 | 1010.0 |
| 20260504082006 | 5 | 205 | 6.4 | 9.7 | 0.00 | 0.00 | 0.00 | 86 | 1010.3 |
| 20260504081527 | 5 | 178 | 1.6 | 4.8 | 0.00 | 0.00 | 0.00 | 85 | 1010.2 |
| 20260504081002 | 5 | 238 | 1.6 | 6.4 | 0.00 | 0.00 | 0.00 | 85 | 1010.2 |
| 20260504080507 | 5 | 243 | 3.2 | 6.4 | 0.00 | 0.00 | 0.00 | 84 | 1010.2 |
| 20260504050506 | 3 | 205 | 4.8 | 9.7 | 0.00 | 0.00 | 0.00 | 77 | 1010.7 |
| 20260504050020 | 3 | 231 | 6.4 | 9.7 | 0.00 | 0.00 | 0.00 | 78 | 1010.7 |
| 20260504045506 | 3 | 219 | 6.4 | 9.7 | 0.00 | 0.00 | 0.00 | 77 | 1010.7 |
| 20260504045010 | 3 | 224 | 4.8 | 9.7 | 0.00 | 0.00 | 0.00 | 78 | 1010.7 |
| 20260504044522 | 3 | 225 | 4.8 | 8.0 | 0.00 | 0.00 | 0.00 | 78 | 1010.7 |
| 20260504044006 | 3 | 255 | 4.8 | 8.0 | 0.00 | 0.00 | 0.00 | 78 | 1010.7 |
| 20260504043507 | 3 | 247 | 3.2 | 6.4 | 0.00 | 0.00 | 0.00 | 79 | 1010.7 |
| 20260504043025 | 3 | 295 | 3.2 | 6.4 | 0.00 | 0.00 | 0.00 | 80 | 1010.7 |
| 20260504042510 | 3 | 215 | 3.2 | 6.4 | 0.00 | 0.00 | 0.00 | 80 | 1010.7 |
| 20260504042011 | 3 | 225 | 3.2 | 6.4 | 0.00 | 0.00 | 0.00 | 80 | 1010.7 |
| 20260504041513 | 3 | 205 | 3.2 | 4.8 | 0.00 | 0.00 | 0.00 | 80 | 1010.8 |
| 20260504041005 | 2 | 319 | 1.6 | 4.8 | 0.00 | 0.00 | 0.00 | 80 | 1010.7 |
| 20260504040506 | 2 | 212 | 3.2 | 6.4 | 0.00 | 0.00 | 0.00 | 80 | 1010.6 |
| 20260504040016 | 2 | 170 | 3.2 | 8.0 | 0.00 | 0.00 | 0.00 | 81 | 1010.6 |
| 20260504035507 | 2 | 212 | 4.8 | 8.0 | 0.00 | 0.00 | 0.00 | 81 | 1010.4 |
| 20260504035007 | 2 | 150 | 1.6 | 4.8 | 0.00 | 0.00 | 0.00 | 82 | 1010.4 |
| 20260504034523 | 2 | 178 | 0.0 | 4.8 | 0.00 | 0.00 | 0.00 | 82 | 1010.4 |
| 20260504034010 | 2 | 232 | 1.6 | 4.8 | 0.00 | 0.00 | 0.00 | 82 | 1010.4 |
| 20260504033507 | 2 | 309 | 3.2 | 4.8 | 0.00 | 0.00 | 0.00 | 82 | 1010.4 |
| 20260504033002 | 2 | 67 | 0.0 | 3.2 | 0.00 | 0.00 | 0.00 | 82 | 1010.3 |
| 20260504032503 | 2 | 238 | 1.6 | 3.2 | 0.00 | 0.00 | 0.00 | 82 | 1010.4 |
| 20260504032002 | 2 | 238 | 0.0 | 3.2 | 0.00 | 0.00 | 0.00 | 82 | 1010.4 |
| 20260504031506 | 2 | 238 | 1.6 | 3.2 | 0.00 | 0.00 | 0.00 | 82 | 1010.3 |
| 20260504031001 | 2 | 265 | 0.0 | 3.2 | 0.00 | 0.00 | 0.00 | 81 | 1010.3 |
| 20260504030502 | 2 | 291 | 1.6 | 3.2 | 0.00 | 0.00 | 0.00 | 80 | 1010.3 |
| 20260504030003 | 2 | 247 | 0.0 | 4.8 | 0.00 | 0.00 | 0.00 | 81 | 1010.4 |
| 20260504025502 | 2 | 255 | 1.6 | 4.8 | 0.00 | 0.00 | 0.00 | 80 | 1010.4 |
| 20260504025004 | 2 | 212 | 1.6 | 4.8 | 0.00 | 0.00 | 0.00 | 79 | 1010.4 |
| 20260504024502 | 2 | 232 | 1.6 | 4.8 | 0.00 | 0.00 | 0.00 | 79 | 1010.4 |
| 20260504024001 | 2 | 265 | 1.6 | 4.8 | 0.00 | 0.00 | 0.00 | 78 | 1010.5 |
| 20260504023502 | 2 | 273 | 3.2 | 4.8 | 0.00 | 0.00 | 0.00 | 78 | 1010.4 |
| 20260504023004 | 2 | 247 | 1.6 | 4.8 | 0.00 | 0.00 | 0.00 | 78 | 1010.4 |
| 20260504022505 | 2 | 250 | 1.6 | 4.8 | 0.00 | 0.00 | 0.00 | 78 | 1010.4 |
| 20260504022004 | 2 | 178 | 0.0 | 4.8 | 0.00 | 0.00 | 0.00 | 77 | 1010.3 |
| 20260504021509 | 2 | 221 | 1.6 | 6.4 | 0.00 | 0.00 | 0.00 | 77 | 1010.3 |
| 20260504021002 | 2 | 282 | 3.2 | 6.4 | 0.00 | 0.00 | 0.00 | 77 | 1010.3 |
| 20260504020502 | 2 | 242 | 3.2 | 4.8 | 0.00 | 0.00 | 0.00 | 78 | 1010.2 |
| 20260504020003 | 2 | 265 | 1.6 | 9.7 | 0.00 | 0.00 | 0.00 | 76 | 1010.1 |
| 20260504015502 | 3 | 249 | 3.2 | 9.7 | 0.00 | 0.00 | 0.00 | 75 | 1010.1 |
| 20260504015001 | 3 | 229 | 4.8 | 8.0 | 0.00 | 0.00 | 0.00 | 75 | 1010.0 |
| 20260504014503 | 3 | 255 | 1.6 | 6.4 | 0.00 | 0.00 | 0.00 | 75 | 1010.1 |
| 20260504014002 | 3 | 286 | 3.2 | 6.4 | 0.00 | 0.00 | 0.00 | 74 | 1010.0 |
| 20260504013503 | 3 | 216 | 4.8 | 9.7 | 0.00 | 0.00 | 0.00 | 73 | 1010.0 |
| 20260504013005 | 3 | 344 | 1.6 | 9.7 | 0.00 | 0.00 | 0.00 | 72 | 1009.9 |
| 20260504012503 | 3 | 255 | 1.6 | 4.8 | 0.00 | 0.00 | 0.00 | 72 | 1009.8 |
| 20260504012003 | 3 | 221 | 1.6 | 4.8 | 0.00 | 0.00 | 0.00 | 71 | 1009.7 |
| 20260504011504 | 4 | 153 | 1.6 | 8.0 | 0.00 | 0.00 | 0.00 | 71 | 1009.6 |
| 20260504011002 | 4 | 238 | 3.2 | 8.0 | 0.00 | 0.00 | 0.00 | 71 | 1009.5 |
| 20260504010502 | 4 | 236 | 4.8 | 6.4 | 0.00 | 0.00 | 0.00 | 70 | 1009.5 |
| 20260504010004 | 5 | 265 | 1.6 | 4.8 | 0.00 | 0.00 | 0.00 | 69 | 1009.3 |
| 20260504005502 | 5 | 242 | 1.6 | 4.8 | 0.00 | 0.00 | 0.00 | 69 | 1009.3 |
| 20260504005002 | 5 | 265 | 1.6 | 9.7 | 0.00 | 0.00 | 0.00 | 67 | 1009.2 |
| 20260504004511 | 5 | 250 | 4.8 | 9.7 | 0.00 | 0.00 | 0.00 | 68 | 1009.1 |
| 20260504004003 | 5 | 249 | 4.8 | 8.0 | 0.00 | 0.00 | 0.00 | 69 | 1009.0 |
| 20260504003501 | 5 | 229 | 3.2 | 6.4 | 0.00 | 0.00 | 0.00 | 68 | 1008.9 |
| 20260504003003 | 5 | 219 | 3.2 | 4.8 | 0.00 | 0.00 | 0.00 | 69 | 1008.8 |
| 20260504002503 | 6 | 238 | 1.6 | 6.4 | 0.00 | 0.00 | 0.00 | 69 | 1008.8 |
| 20260504002003 | 6 | 265 | 3.2 | 6.4 | 0.00 | 0.00 | 0.00 | 65 | 1008.7 |
| 20260504001510 | 6 | 250 | 0.0 | 4.8 | 0.00 | 0.00 | 0.00 | 66 | 1008.7 |
| 20260504001003 | 6 | 338 | 1.6 | 4.8 | 0.00 | 0.00 | 0.00 | 68 | 1008.6 |
| 20260504000502 | 7 | 247 | 1.6 | 6.4 | 0.00 | 0.00 | 0.00 | 65 | 1008.5 |
| 20260504000004 | 7 | 254 | 1.6 | 6.4 | 0.00 | 0.00 | 0.00 | 57 | 1008.6 |
| 20260503235502 | 7 | 249 | 3.2 | 6.4 | 0.00 | 0.00 | 0.00 | 56 | 1008.5 |
| 20260503235003 | 8 | 249 | 3.2 | 6.4 | 0.00 | 0.00 | 0.00 | 55 | 1008.4 |
| 20260503234504 | 8 | 241 | 3.2 | 4.8 | 0.00 | 0.00 | 0.00 | 51 | 1008.3 |
| 20260503234003 | 8 | 238 | 1.6 | 4.8 | 0.00 | 0.00 | 0.00 | 50 | 1008.3 |
| 20260503233509 | 8 | 229 | 1.6 | 3.2 | 0.00 | 0.00 | 0.00 | 46 | 1008.3 |
| 20260503233004 | 9 | 51 | 1.6 | 4.8 | 0.00 | 0.00 | 0.00 | 47 | 1008.3 |
| 20260503232502 | 9 | 309 | 0.0 | 8.0 | 0.00 | 0.00 | 0.00 | 46 | 1008.2 |
| 20260503232003 | 9 | 279 | 1.6 | 8.0 | 0.00 | 0.00 | 0.00 | 46 | 1008.2 |
| 20260503231504 | 10 | 329 | 3.2 | 8.0 | 0.00 | 0.00 | 0.00 | 44 | 1008.2 |
| 20260503231004 | 10 | 9 | 3.2 | 8.0 | 0.00 | 0.00 | 0.00 | 42 | 1008.2 |
| 20260503230503 | 10 | 341 | 3.2 | 16.1 | 0.00 | 0.00 | 0.00 | 41 | 1008.2 |
| 20260503230004 | 10 | 22 | 6.4 | 16.1 | 0.00 | 0.00 | 0.00 | 39 | 1008.2 |
| 20260503225503 | 10 | 57 | 1.6 | 16.1 | 0.00 | 0.00 | 0.00 | 41 | 1008.2 |
| 20260503225003 | 11 | 13 | 6.4 | 19.3 | 0.00 | 0.00 | 0.00 | 40 | 1008.2 |
| 20260503224505 | 11 | 36 | 9.7 | 19.3 | 0.00 | 0.00 | 0.00 | 38 | 1008.2 |
| 20260503224003 | 11 | 31 | 11.3 | 22.5 | 0.00 | 0.00 | 0.00 | 39 | 1008.2 |
| 20260503223505 | 11 | 15 | 8.0 | 22.5 | 0.00 | 0.00 | 0.00 | 40 | 1008.2 |
| 20260503223008 | 11 | 67 | 3.2 | 19.3 | 0.00 | 0.00 | 0.00 | 41 | 1008.2 |
| 20260503222505 | 11 | 28 | 8.0 | 22.5 | 0.00 | 0.00 | 0.00 | 37 | 1008.2 |
| 20260503222003 | 11 | 291 | 11.3 | 22.5 | 0.00 | 0.00 | 0.00 | 37 | 1008.2 |
| 20260503221503 | 11 | 331 | 3.2 | 20.9 | 0.00 | 0.00 | 0.00 | 42 | 1008.2 |
| 20260503221002 | 11 | 346 | 3.2 | 20.9 | 0.00 | 0.00 | 0.00 | 38 | 1008.2 |
| 20260503220505 | 11 | 28 | 9.7 | 16.1 | 0.00 | 0.00 | 0.00 | 39 | 1008.1 |
| 20260503220012 | 11 | 59 | 3.2 | 14.5 | 0.00 | 0.00 | 0.00 | 42 | 1008.2 |
| 20260503215504 | 11 | 13 | 8.0 | 19.3 | 0.00 | 0.00 | 0.00 | 40 | 1008.2 |
| 20260503215003 | 11 | 340 | 1.6 | 19.3 | 0.00 | 0.00 | 0.00 | 41 | 1008.1 |
| 20260503214512 | 11 | 238 | 4.8 | 17.7 | 0.00 | 0.00 | 0.00 | 42 | 1008.1 |
| 20260503214003 | 11 | 309 | 4.8 | 19.3 | 0.00 | 0.00 | 0.00 | 41 | 1008.1 |
| 20260503213505 | 11 | 49 | 9.7 | 24.1 | 0.00 | 0.00 | 0.00 | 39 | 1008.1 |
| 20260503213004 | 11 | 23 | 11.3 | 29.0 | 0.00 | 0.00 | 0.00 | 39 | 1008.1 |